Weather History for Livingston, MT

Change the Weather History Date:

Tuesday, January 15, 2013

  Actual Average Record
Temperature  
Mean Temperature 22 °F 27 °F  
Max Temperature 28 °F 37 °F 56 °F (1973)
Min Temperature 15 °F 17 °F -22 °F (2005)
Degree Days  
Heating Degree Days 44 38  
Month to date heating degree days 574  
Since 1 July heating degree days 3739  
Moisture  
Dew Point 11 °F    
Average Humidity 63    
Maximum Humidity 68    
Minimum Humidity 55    
Precipitation  
Precipitation 0.00 in 0.02 in 0.29 in (1977)
Month to date precipitation 0.24  
Year to date precipitation 0.24  
Sea Level Pressure  
Sea Level Pressure 30.25 in    
Wind  
Wind Speed 35 mph (SW)    
Max Wind Speed 43 mph    
Max Gust Speed 59 mph    
Visibility 5 miles    
Events Snow    
T = Trace of Precipitation, MM = Missing Value Source: NWS Daily Summary

Daily Weather History Graph

Daily Weather History Graph

Search for Another Location

Airport:

Trip Planner

Search our weather history database for the weather conditions in past years. The results will help you decide how hot, cold, wet, or windy it might be!

Date:

Astronomy

Jan. 15, 2013 Rise Set
Actual Time 7:58 AM MST 5:04 PM MST
Civil Twilight 7:25 AM MST 5:37 PM MST
Nautical Twilight 6:48 AM MST 6:14 PM MST
Astronomical Twilight 6:12 AM MST 6:50 PM MST
Moon 9:49 AM MST (1/15) 10:15 PM MST (1/15)
Length of Visible Light 10h 12m
Length of Day
9h 06m
Waxing Crescent, 20% of the Moon is Illuminated
Jan 15
Waxing Crescent
Jan 18
First Quarter
Jan 26
Full
Feb 3
Last Quarter
Feb 10
New

Hourly Weather History & Observations

Time (MST) Temp. Windchill Dew Point Humidity Pressure Visibility Wind Dir Wind Speed Gust Speed Precip Events Conditions
12:21 AM 15.8 °F -5.8 °F 6.8 °F 68% 30.06 in 2.0 mi WSW 35.7 mph 46.0 mph 0.00 in Snow Light Snow
12:28 AM 17.6 °F -3.1 °F 8.6 °F 68% 30.05 in 1.8 mi WSW 34.5 mph 43.7 mph 0.00 in Snow Light Snow
12:40 AM 15.8 °F -5.5 °F 6.8 °F 68% 30.05 in 2.0 mi SW 34.5 mph 44.9 mph 0.00 in Snow Light Snow
12:53 AM 17.1 °F -4.8 °F 8.1 °F 68% 30.26 in 1.8 mi SW 39.1 mph 50.6 mph 0.00 in Snow Light Snow
1:05 AM 15.8 °F -5.5 °F 6.8 °F 68% 30.06 in 3.0 mi WSW 34.5 mph 44.9 mph 0.00 in   Haze
1:14 AM 17.6 °F -3.8 °F 8.6 °F 68% 30.07 in 2.0 mi SW 38.0 mph 51.8 mph 0.00 in Snow Light Snow
1:33 AM 19.4 °F -0.3 °F 8.6 °F 63% 30.07 in 4.0 mi WSW 33.4 mph 44.9 mph 0.00 in   Haze
1:53 AM 18.0 °F -2.8 °F 8.1 °F 65% 30.28 in 4.0 mi SW 35.7 mph 43.7 mph 0.00 in   Haze
2:53 AM 19.0 °F -0.3 °F 9.0 °F 65% 30.30 in 8.0 mi SW 31.1 mph 38.0 mph N/A   Overcast
3:53 AM 19.9 °F 0.7 °F 10.0 °F 65% 30.30 in 4.0 mi WSW 32.2 mph 40.3 mph N/A   Haze
4:12 AM 19.4 °F -1.1 °F 10.4 °F 68% 30.10 in 2.0 mi WSW 36.8 mph 46.0 mph 0.00 in Snow Light Snow
4:19 AM 19.4 °F -1.8 °F 10.4 °F 68% 30.10 in 1.2 mi WSW 40.3 mph 48.3 mph 0.00 in Snow Light Snow
4:37 AM 19.4 °F -0.8 °F 10.4 °F 68% 30.10 in 2.0 mi WSW 35.7 mph 49.5 mph 0.00 in Snow Light Snow
5:53 AM 19.9 °F 0.4 °F 10.0 °F 65% 30.30 in 5.0 mi SW 33.4 mph 43.7 mph N/A   Haze
6:53 AM 18.0 °F -2.6 °F 9.0 °F 68% 30.31 in 8.0 mi SW 34.5 mph 41.4 mph N/A   Scattered Clouds
7:31 AM 19.4 °F -0.8 °F 10.4 °F 68% 30.11 in 2.5 mi SW 35.7 mph 41.4 mph 0.00 in Snow Light Snow
7:53 AM 21.0 °F 2.4 °F 10.9 °F 65% 30.32 in 8.0 mi SW 31.1 mph 40.3 mph 0.00 in   Mostly Cloudy
8:53 AM 23.0 °F 6.0 °F 12.0 °F 63% 30.31 in 9.0 mi WSW 27.6 mph 42.6 mph N/A   Overcast
9:53 AM 19.9 °F -0.3 °F 10.0 °F 65% 30.35 in 4.0 mi SW 36.8 mph 46.0 mph N/A   Haze
10:15 AM 19.4 °F -1.8 °F 10.4 °F 68% 30.16 in 1.8 mi SW 40.3 mph 58.7 mph N/A   Haze
10:44 AM 19.4 °F -2.2 °F 10.4 °F 68% 30.15 in 2.5 mi SW 42.6 mph 50.6 mph 0.00 in   Haze
11:06 AM 19.4 °F -1.3 °F 8.6 °F 63% 30.17 in 3.0 mi WSW 38.0 mph 49.5 mph N/A   Haze
11:53 AM 21.0 °F 1.2 °F 10.0 °F 63% 30.34 in 4.0 mi SW 36.8 mph 48.3 mph N/A   Haze
12:53 PM 23.0 °F 4.6 °F 10.9 °F 60% 30.35 in 3.0 mi WSW 33.4 mph 50.6 mph N/A   Haze
1:53 PM 24.1 °F 5.0 °F 12.0 °F 60% 30.33 in 3.0 mi SW 39.1 mph 48.3 mph N/A   Haze
2:53 PM 24.1 °F 5.6 °F 12.0 °F 60% 30.37 in 7.0 mi SW 35.7 mph 43.7 mph N/A   Scattered Clouds
3:53 PM 27.0 °F 10.3 °F 14.0 °F 58% 30.35 in 10.0 mi SW 32.2 mph 42.6 mph N/A   Clear
4:53 PM 28.9 °F 14.5 °F 15.1 °F 56% 30.37 in 10.0 mi SW 25.3 mph 38.0 mph N/A   Mostly Cloudy
5:53 PM 27.0 °F 10.5 °F 14.0 °F 58% 30.37 in 10.0 mi SW 31.1 mph 41.4 mph N/A   Clear
6:53 PM 27.0 °F 11.6 °F 14.0 °F 58% 30.39 in 10.0 mi SW 26.5 mph 38.0 mph N/A   Clear
7:53 PM 26.1 °F 9.6 °F 12.9 °F 58% 30.38 in 10.0 mi SW 29.9 mph 38.0 mph N/A   Clear
8:53 PM 26.1 °F 9.3 °F 12.0 °F 55% 30.36 in 8.0 mi SW 31.1 mph 43.7 mph N/A   Clear
9:53 PM 26.1 °F 11.0 °F 12.0 °F 55% 30.38 in 10.0 mi WSW 24.2 mph 43.7 mph N/A   Clear
10:53 PM 24.1 °F 5.6 °F 12.0 °F 60% 30.40 in 10.0 mi West 35.7 mph 46.0 mph N/A   Clear
11:53 PM 28.9 °F 12.5 °F 15.1 °F 56% 30.36 in 10.0 mi SW 34.5 mph 46.0 mph N/A   Clear